Location: Penton Mewsey
(51.2167°N, 1.5167°W)
Time: 01:20:03
(UTC+00:00)

Cosmos 1726 - Pass Details

Date: 30 March 2020
Orbit: 482 x 500 km, 82.5° (Epoch: 03 June)

Event Time Altitude Azimuth Distance (km) Brightness Sun altitude
Exits shadow 21:17:11 22° 231° (SW) 1,127 3.9 -23.4°
Maximum altitude 21:19:05 39° 286° (WNW) 771 3.5 -23.6°
Drops below altitude 10° 21:22:39 10° 357° (N) 1,720 5.4 -24.1°
Sets 21:24:53 0° 5° (N) 2,608 6.3 -24.3°
